Hourly Weather Otterburn Park

Today, 30 July, Friday

Time Temperature Precipitation Wind Pressure Humidity
00:00 +14°C° 0 mm 0 mps 751 mmHg 96%
01:00 +15°C° 0 mm 0 mps 751 mmHg 97%
02:00 +16°C° 0.3 mm 1 mps 751 mmHg 97%
03:00 +16°C° 0.3 mm 1 mps 751 mmHg 97%
04:00 +16°C° 0.3 mm 2 mps 751 mmHg 97%
05:00 +16°C° 0.7 mm 3 mps 751 mmHg 96%
06:00 +16°C° 0.7 mm 3 mps 752 mmHg 94%
07:00 +15°C° 0.7 mm 4 mps 752 mmHg 93%
08:00 +15°C° 0.1 mm 4 mps 752 mmHg 90%
09:00 +14°C° 0.1 mm 4 mps 753 mmHg 86%
10:00 +14°C° 0.1 mm 4 mps 753 mmHg 83%
11:00 +15°C° 0.1 mm 4 mps 753 mmHg 77%
12:00 +17°C° 0.1 mm 4 mps 754 mmHg 71%
13:00 +18°C° 0.1 mm 4 mps 754 mmHg 65%
14:00 +18°C° 0 mm 4 mps 754 mmHg 62%
15:00 +19°C° 0 mm 4 mps 754 mmHg 59%
16:00 +19°C° 0 mm 4 mps 754 mmHg 56%
17:00 +18°C° 0 mm 4 mps 754 mmHg 57%
18:00 +15°C° 0 mm 5 mps 755 mmHg 59%
19:00 +14°C° 0 mm 5 mps 756 mmHg 60%
20:00 +13°C° 0 mm 4 mps 756 mmHg 62%
21:00 +12°C° 0 mm 3 mps 756 mmHg 64%
22:00 +13°C° 0 mm 2 mps 757 mmHg 66%
23:00 +13°C° 0 mm 2 mps 756 mmHg 64%

Tomorrow, 31 July, Saturday

Time Temperature Precipitation Wind Pressure Humidity
00:00 +13°C° 0 mm 2 mps 756 mmHg 63%
01:00 +13°C° 0 mm 2 mps 756 mmHg 61%
02:00 +12°C° 0 mm 2 mps 756 mmHg 64%
03:00 +10°C° 0 mm 3 mps 756 mmHg 66%
04:00 +10°C° 0 mm 3 mps 757 mmHg 69%
05:00 +10°C° 0 mm 3 mps 757 mmHg 68%
06:00 +11°C° 0 mm 4 mps 757 mmHg 68%
07:00 +12°C° 0 mm 4 mps 758 mmHg 67%
08:00 +14°C° 0 mm 4 mps 758 mmHg 62%
09:00 +17°C° 0 mm 4 mps 757 mmHg 57%
10:00 +19°C° 0 mm 4 mps 757 mmHg 51%
11:00 +20°C° 0 mm 4 mps 757 mmHg 48%
12:00 +21°C° 0 mm 5 mps 757 mmHg 44%
13:00 +22°C° 0 mm 5 mps 756 mmHg 40%
14:00 +22°C° 0 mm 5 mps 756 mmHg 43%
15:00 +22°C° 0 mm 5 mps 756 mmHg 46%
16:00 +22°C° 0 mm 6 mps 756 mmHg 49%
17:00 +21°C° 0 mm 5 mps 756 mmHg 54%
18:00 +20°C° 0 mm 4 mps 756 mmHg 59%
19:00 +18°C° 0 mm 3 mps 756 mmHg 64%
20:00 +18°C° 0 mm 3 mps 756 mmHg 65%
21:00 +18°C° 0 mm 3 mps 757 mmHg 66%
22:00 +18°C° 0 mm 3 mps 757 mmHg 66%
23:00 +17°C° 0 mm 3 mps 757 mmHg 72%

Day after tomorrow, 1 August, Sunday

Time Temperature Precipitation Wind Pressure Humidity
00:00 +17°C° 0 mm 4 mps 757 mmHg 77%
01:00 +15°C° 0 mm 4 mps 756 mmHg 83%
02:00 +16°C° 0 mm 3 mps 756 mmHg 86%
03:00 +16°C° 0 mm 3 mps 756 mmHg 88%
04:00 +15°C° 0 mm 2 mps 756 mmHg 91%
05:00 +16°C° 0 mm 2 mps 756 mmHg 89%
06:00 +16°C° 0 mm 2 mps 756 mmHg 88%
07:00 +17°C° 0 mm 2 mps 756 mmHg 86%
08:00 +17°C° 0 mm 3 mps 756 mmHg 84%
09:00 +17°C° 0 mm 3 mps 756 mmHg 83%
10:00 +18°C° 0 mm 4 mps 756 mmHg 82%
11:00 +17°C° 1.1 mm 4 mps 755 mmHg 87%
12:00 +17°C° 1.1 mm 3 mps 755 mmHg 92%
13:00 +16°C° 1.1 mm 3 mps 755 mmHg 96%
14:00 +16°C° 1.3 mm 3 mps 755 mmHg 97%
15:00 +16°C° 1.3 mm 3 mps 754 mmHg 97%
16:00 +16°C° 1.3 mm 2 mps 754 mmHg 97%
17:00 +16°C° 0.3 mm 2 mps 754 mmHg 97%
18:00 +16°C° 0.3 mm 2 mps 753 mmHg 97%
19:00 +16°C° 0.3 mm 2 mps 753 mmHg 97%
20:00 +16°C° 0.5 mm 2 mps 753 mmHg 97%
21:00 +16°C° 0.5 mm 2 mps 753 mmHg 97%
22:00 +16°C° 0.5 mm 2 mps 752 mmHg 97%
23:00 +16°C° 2.5 mm 3 mps 752 mmHg 97%

2 August, Monday

Time Temperature Precipitation Wind Pressure Humidity
00:00 +16°C° 2.5 mm 3 mps 751 mmHg 97%
01:00 +15°C° 2.5 mm 4 mps 751 mmHg 97%
02:00 +15°C° 0.4 mm 5 mps 751 mmHg 97%
03:00 +15°C° 0.4 mm 6 mps 750 mmHg 97%
04:00 +15°C° 0.4 mm 7 mps 750 mmHg 96%
05:00 +14°C° 1.1 mm 6 mps 751 mmHg 96%
06:00 +14°C° 1.1 mm 5 mps 752 mmHg 95%
07:00 +14°C° 1.1 mm 5 mps 753 mmHg 94%
08:00 +14°C° 0 mm 5 mps 754 mmHg 91%
09:00 +15°C° 0 mm 5 mps 755 mmHg 87%
10:00 +16°C° 0 mm 5 mps 755 mmHg 83%
11:00 +18°C° 0 mm 4 mps 755 mmHg 73%
12:00 +20°C° 0 mm 4 mps 755 mmHg 63%
13:00 +22°C° 0 mm 3 mps 756 mmHg 53%
14:00 +22°C° 0 mm 3 mps 756 mmHg 56%
15:00 +23°C° 0 mm 2 mps 756 mmHg 58%
16:00 +23°C° 0 mm 2 mps 756 mmHg 61%
17:00 +21°C° 0 mm 2 mps 756 mmHg 62%
18:00 +20°C° 0 mm 2 mps 757 mmHg 63%
19:00 +19°C° 0 mm 3 mps 757 mmHg 64%
20:00 +18°C° 0 mm 2 mps 758 mmHg 65%
21:00 +19°C° 0 mm 1 mps 758 mmHg 67%
22:00 +18°C° 0 mm 1 mps 758 mmHg 68%
23:00 +16°C° 0 mm 1 mps 758 mmHg 70%

3 August, Tuesday

Time Temperature Precipitation Wind Pressure Humidity
00:00 +15°C° 0 mm 1 mps 758 mmHg 73%
01:00 +14°C° 0 mm 1 mps 759 mmHg 76%
02:00 +14°C° 0 mm 2 mps 759 mmHg 78%
03:00 +13°C° 0 mm 2 mps 759 mmHg 81%
04:00 +12°C° 0 mm 2 mps 759 mmHg 84%
05:00 +14°C° 0 mm 2 mps 759 mmHg 82%
06:00 +14°C° 0 mm 3 mps 759 mmHg 81%
07:00 +16°C° 0 mm 3 mps 760 mmHg 79%
08:00 +18°C° 0 mm 4 mps 760 mmHg 73%
09:00 +20°C° 0 mm 4 mps 760 mmHg 67%
10:00 +22°C° 0 mm 5 mps 760 mmHg 61%
11:00 +22°C° 0 mm 5 mps 760 mmHg 57%
12:00 +23°C° 0 mm 5 mps 759 mmHg 53%
13:00 +25°C° 0 mm 5 mps 759 mmHg 49%
14:00 +25°C° 0 mm 4 mps 759 mmHg 51%
15:00 +26°C° 0 mm 4 mps 759 mmHg 53%
16:00 +26°C° 0 mm 4 mps 759 mmHg 55%
17:00 +24°C° 0 mm 3 mps 759 mmHg 61%
18:00 +22°C° 0 mm 3 mps 759 mmHg 67%
19:00 +20°C° 0 mm 2 mps 759 mmHg 73%
20:00 +19°C° 0 mm 2 mps 759 mmHg 75%
21:00 +18°C° 0 mm 2 mps 759 mmHg 78%
22:00 +17°C° 0 mm 2 mps 760 mmHg 80%
23:00 +17°C° 0 mm 2 mps 760 mmHg 80%

4 August, Wednesday

Time Temperature Precipitation Wind Pressure Humidity
00:00 +16°C° 0 mm 3 mps 760 mmHg 80%
01:00 +16°C° 0 mm 3 mps 760 mmHg 80%
02:00 +16°C° 0 mm 3 mps 760 mmHg 79%
03:00 +14°C° 0 mm 3 mps 760 mmHg 79%
04:00 +14°C° 0 mm 3 mps 760 mmHg 78%
05:00 +16°C° 0 mm 3 mps 761 mmHg 77%
06:00 +17°C° 0 mm 3 mps 761 mmHg 75%
07:00 +18°C° 0 mm 3 mps 762 mmHg 73%
08:00 +20°C° 0 mm 4 mps 762 mmHg 70%
09:00 +21°C° 0 mm 4 mps 762 mmHg 67%
10:00 +23°C° 0 mm 4 mps 762 mmHg 64%
11:00 +25°C° 0 mm 4 mps 762 mmHg 62%
12:00 +26°C° 0 mm 4 mps 762 mmHg 60%
13:00 +27°C° 0 mm 4 mps 762 mmHg 58%
14:00 +27°C° 0.1 mm 3 mps 762 mmHg 59%
15:00 +27°C° 0.1 mm 3 mps 762 mmHg 59%
16:00 +27°C° 0.1 mm 3 mps 762 mmHg 60%
17:00 +26°C° 0.6 mm 2 mps 762 mmHg 67%
18:00 +24°C° 0.6 mm 1 mps 763 mmHg 74%
19:00 +22°C° 0.6 mm 1 mps 763 mmHg 81%
20:00 +22°C° 0 mm 1 mps 763 mmHg 83%
21:00 +21°C° 0 mm 1 mps 764 mmHg 84%
22:00 +20°C° 0 mm 1 mps 764 mmHg 86%
23:00 +20°C° 0 mm 1 mps 764 mmHg 87%
Show more